Location: Unspecified
(0.0000°N, 0.0000°E)
Time: 07:42:59
(UTC+00:00)

FALCON 9 DEB - Pass Details

Date: 12 June 2021
Orbit: 221 x 243 km, 53.0° (Epoch: 20 June)

Event Time Altitude Azimuth Distance (km) Brightness Sun altitude
Exits shadow 05:28:26 - 226° (SW) 1,071 ? -7.2°
Reaches altitude 10° 05:28:35 10° 227° (SW) 1,010 ? -7.2°
Maximum altitude 05:30:45 48° 304° (NW) 340 ? -6.7°
Drops below altitude 10° 05:32:58 10° 21° (NNE) 1,036 ? -6.2°
Sets 05:34:54 0° 27° (NNE) 1,850 ? -5.7°
